User: anonymous   Login
Location: Unspecified
(48.2082°N, 0.0000°E)
Time: 07:45:55
(UTC+00:00)
Language:

Tiros 1 despin weight - Orbit

View from above orbital plane
View from above orbital plane
View from above satellite
View from above satellite

Ground track
Ground track

The orbit data is extracted from the following two-line orbital elements,

1   115U 60002D   19292.12963030  .00000079  00000-0  36523-4 0  9991
2   115  48.1683 359.3920 0035228 260.8602  98.8325 14.83492815176996
Epoch (UTC): 19 October 2019 03:06:40
Eccentricity: 0.0035228
inclination: 48.1683°
perigee height: 593 km
apogee height: 643 km
right ascension of ascending node: 359.3920°
argument of perigee: 260.8602°
revolutions per day: 14.83492815
mean anomaly at epoch: 98.8325°
orbit number at epoch: 17699

The dashed part of the orbit path shows where the satellite is in the earth's shadow,  

DLR